Time,TemperatureF,DewpointF,PressureIn,WindDirection,WindDirectionDegrees,WindSpeedMPH,WindSpeedGustMPH,Humidity,HourlyPrecipIn,Conditions,Clouds,dailyrainin,SoftwareType,DateUTC
2013-05-17 00:01:00,57.8,51.7,30.00,SSW,206,0.0,0.0,80,0.00,,,0.02,Wunderground v.1.15,2013-05-17 07:01:00,
2013-05-17 00:11:00,57.5,50.7,30.00,SE,144,1.0,1.0,78,0.00,,,0.00,Wunderground v.1.15,2013-05-17 07:11:00,
2013-05-17 00:16:00,57.3,50.1,30.00,SSE,167,1.0,2.0,77,0.00,,,0.00,Wunderground v.1.15,2013-05-17 07:16:00,
2013-05-17 00:26:00,56.9,49.8,30.00,SSE,154,2.0,2.0,77,0.00,,,0.00,Wunderground v.1.15,2013-05-17 07:26:00,
2013-05-17 00:36:00,56.7,49.6,30.00,SE,131,1.0,1.0,77,0.00,,,0.00,Wunderground v.1.15,2013-05-17 07:36:00,
2013-05-17 00:46:00,56.5,49.4,30.00,SE,126,1.0,2.0,77,0.00,,,0.00,Wunderground v.1.15,2013-05-17 07:46:00,
2013-05-17 00:56:00,56.2,49.4,30.00,South,191,2.0,2.0,78,0.00,,,0.00,Wunderground v.1.15,2013-05-17 07:56:00,
2013-05-17 01:11:00,55.9,49.5,30.00,SE,137,1.0,1.0,79,0.00,,,0.00,Wunderground v.1.15,2013-05-17 08:11:00,
2013-05-17 01:16:00,55.7,49.3,30.00,SE,145,1.0,2.0,79,0.00,,,0.00,Wunderground v.1.15,2013-05-17 08:16:00,
2013-05-17 01:21:00,55.6,48.8,30.00,SSW,209,1.0,1.0,78,0.00,,,0.00,Wunderground v.1.15,2013-05-17 08:21:00,
2013-05-17 01:26:00,55.6,48.8,30.00,South,184,1.0,1.0,78,0.00,,,0.00,Wunderground v.1.15,2013-05-17 08:26:00,
2013-05-17 01:31:00,55.4,49.0,30.00,SSE,147,1.0,1.0,79,0.00,,,0.00,Wunderground v.1.15,2013-05-17 08:31:00,
2013-05-17 01:41:00,55.3,48.9,30.00,SSE,160,1.0,1.0,79,0.00,,,0.00,Wunderground v.1.15,2013-05-17 08:41:00,
2013-05-17 01:51:00,55.1,48.7,30.00,West,275,1.0,1.0,79,0.00,,,0.00,Wunderground v.1.15,2013-05-17 08:51:00,
2013-05-17 02:01:00,55.0,48.6,30.00,ESE,116,1.0,1.0,79,0.00,,,0.00,Wunderground v.1.15,2013-05-17 09:01:00,
2013-05-17 02:11:00,54.8,48.7,30.00,SE,143,1.0,1.0,80,0.00,,,0.00,Wunderground v.1.15,2013-05-17 09:11:00,
2013-05-17 02:21:00,54.7,49.0,30.00,SE,141,0.0,0.0,81,0.00,,,0.00,Wunderground v.1.15,2013-05-17 09:21:00,
2013-05-17 02:31:00,54.4,49.3,30.00,SE,144,1.0,2.0,83,0.00,,,0.00,Wunderground v.1.15,2013-05-17 09:31:00,
2013-05-17 02:41:00,54.1,49.1,30.00,SE,134,1.0,1.0,83,0.00,,,0.00,Wunderground v.1.15,2013-05-17 09:41:00,
2013-05-17 02:51:00,53.9,49.2,30.00,NW,323,1.0,1.0,84,0.00,,,0.00,Wunderground v.1.15,2013-05-17 09:51:00,
2013-05-17 02:56:00,53.9,49.8,30.00,SSE,154,1.0,1.0,86,0.00,,,0.00,Wunderground v.1.15,2013-05-17 09:56:00,
2013-05-17 03:01:00,53.6,49.5,30.00,SSE,155,1.0,2.0,86,0.00,,,0.00,Wunderground v.1.15,2013-05-17 10:01:00,
2013-05-17 03:11:00,53.5,50.0,30.00,SE,141,1.0,4.0,88,0.00,,,0.00,Wunderground v.1.15,2013-05-17 10:11:00,
2013-05-17 03:21:00,53.3,50.1,30.01,SE,136,0.0,0.0,89,0.00,,,0.00,Wunderground v.1.15,2013-05-17 10:21:00,
2013-05-17 03:31:00,53.2,50.3,30.01,ENE,73,0.0,0.0,90,0.00,,,0.01,Wunderground v.1.15,2013-05-17 10:31:00,
2013-05-17 03:36:00,53.2,50.3,30.01,ENE,73,0.0,0.0,90,0.00,,,0.01,Wunderground v.1.15,2013-05-17 10:36:00,
2013-05-17 03:46:00,53.2,50.9,30.01,North,359,0.0,0.0,92,0.00,,,0.01,Wunderground v.1.15,2013-05-17 10:46:00,
2013-05-17 03:56:00,53.2,50.9,30.01,North,359,0.0,0.0,92,0.00,,,0.01,Wunderground v.1.15,2013-05-17 10:56:00,
2013-05-17 04:11:00,53.1,50.8,30.01,East,96,0.0,0.0,92,0.00,,,0.01,Wunderground v.1.15,2013-05-17 11:11:00,
2013-05-17 04:21:00,53.1,51.1,30.01,NW,315,0.0,1.0,93,0.00,,,0.01,Wunderground v.1.15,2013-05-17 11:21:00,
2013-05-17 04:26:00,53.1,51.1,30.01,NW,315,0.0,1.0,93,0.00,,,0.01,Wunderground v.1.15,2013-05-17 11:26:00,
2013-05-17 04:36:00,53.1,51.1,30.01,SE,130,0.0,1.0,93,0.00,,,0.01,Wunderground v.1.15,2013-05-17 11:36:00,
2013-05-17 04:46:00,52.9,50.9,30.01,ESE,119,1.0,2.0,93,0.00,,,0.01,Wunderground v.1.15,2013-05-17 11:46:00,
2013-05-17 04:51:00,53.1,51.1,30.01,SE,127,2.0,2.0,93,0.00,,,0.01,Wunderground v.1.15,2013-05-17 11:51:00,
2013-05-17 05:01:00,53.1,51.1,30.01,SE,127,0.0,1.0,93,0.00,,,0.01,Wunderground v.1.15,2013-05-17 12:01:00,
2013-05-17 05:11:00,53.1,51.4,30.01,SE,130,1.0,2.0,94,0.00,,,0.01,Wunderground v.1.15,2013-05-17 12:11:00,
2013-05-17 05:16:00,53.1,51.1,30.01,SE,130,1.0,2.0,93,0.00,,,0.01,Wunderground v.1.15,2013-05-17 12:16:00,
2013-05-17 05:26:00,52.9,50.9,30.01,ESE,114,1.0,1.0,93,0.00,,,0.02,Wunderground v.1.15,2013-05-17 12:26:00,
2013-05-17 05:31:00,52.9,50.9,30.01,ESE,116,1.0,1.0,93,0.00,,,0.02,Wunderground v.1.15,2013-05-17 12:31:00,
2013-05-17 05:36:00,52.8,50.8,30.01,ESE,121,0.0,1.0,93,0.00,,,0.02,Wunderground v.1.15,2013-05-17 12:36:00,
2013-05-17 05:46:00,52.8,50.8,30.01,NE,40,0.0,0.0,93,0.00,,,0.02,Wunderground v.1.15,2013-05-17 12:46:00,
2013-05-17 05:56:00,52.6,50.3,30.01,SE,140,1.0,2.0,92,0.00,,,0.02,Wunderground v.1.15,2013-05-17 12:56:00,
2013-05-17 06:11:00,52.6,50.3,30.02,SE,126,1.0,1.0,92,0.00,,,0.02,Wunderground v.1.15,2013-05-17 13:11:00,
2013-05-17 06:21:00,52.6,50.6,30.02,North,11,0.0,1.0,93,0.00,,,0.02,Wunderground v.1.15,2013-05-17 13:21:00,
2013-05-17 06:31:00,52.6,50.3,30.03,SE,130,1.0,1.0,92,0.00,,,0.02,Wunderground v.1.15,2013-05-17 13:31:00,
2013-05-17 06:41:00,52.6,50.3,30.03,ESE,119,0.0,0.0,92,0.00,,,0.02,Wunderground v.1.15,2013-05-17 13:41:00,
2013-05-17 06:51:00,52.8,50.8,30.03,SSE,147,0.0,0.0,93,0.00,,,0.02,Wunderground v.1.15,2013-05-17 13:51:00,
2013-05-17 07:01:00,52.8,50.5,30.03,SE,141,1.0,1.0,92,0.00,,,0.02,Wunderground v.1.15,2013-05-17 14:01:00,
2013-05-17 07:11:00,52.9,50.3,30.03,SSE,150,1.0,2.0,91,0.00,,,0.02,Wunderground v.1.15,2013-05-17 14:11:00,
2013-05-17 07:21:00,53.1,50.8,30.03,SSE,164,0.0,0.0,92,0.00,,,0.02,Wunderground v.1.15,2013-05-17 14:21:00,
2013-05-17 07:26:00,53.2,50.9,30.03,SSW,192,0.0,0.0,92,0.00,,,0.02,Wunderground v.1.15,2013-05-17 14:26:00,
2013-05-17 07:36:00,53.3,50.7,30.04,SE,144,0.0,1.0,91,0.00,,,0.02,Wunderground v.1.15,2013-05-17 14:36:00,
2013-05-17 07:41:00,53.5,51.2,30.04,SE,145,0.0,2.0,92,0.00,,,0.02,Wunderground v.1.15,2013-05-17 14:41:00,
2013-05-17 07:51:00,53.6,51.0,30.04,SE,140,1.0,1.0,91,0.00,,,0.02,Wunderground v.1.15,2013-05-17 14:51:00,
2013-05-17 07:56:00,53.8,51.2,30.04,SE,140,1.0,1.0,91,0.00,,,0.03,Wunderground v.1.15,2013-05-17 14:56:00,
2013-05-17 08:11:00,54.2,51.6,30.04,SE,128,1.0,1.0,91,0.00,,,0.03,Wunderground v.1.15,2013-05-17 15:11:00,
2013-05-17 08:16:00,54.4,51.5,30.04,SE,130,2.0,2.0,90,0.00,,,0.03,Wunderground v.1.15,2013-05-17 15:16:00,
2013-05-17 08:26:00,54.8,51.9,30.04,South,172,0.0,1.0,90,0.00,,,0.03,Wunderground v.1.15,2013-05-17 15:26:00,
2013-05-17 08:36:00,55.0,51.2,30.04,SE,138,1.0,2.0,87,0.00,,,0.03,Wunderground v.1.15,2013-05-17 15:36:00,
2013-05-17 08:41:00,55.1,51.6,30.04,South,185,1.0,4.0,88,0.00,,,0.03,Wunderground v.1.15,2013-05-17 15:41:00,
2013-05-17 08:46:00,55.1,50.7,30.04,SSE,154,2.0,4.0,85,0.00,,,0.03,Wunderground v.1.15,2013-05-17 15:46:00,
2013-05-17 08:56:00,55.1,51.0,30.04,SSW,195,2.0,2.0,86,0.00,,,0.03,Wunderground v.1.15,2013-05-17 15:56:00,
2013-05-17 09:11:00,55.6,51.8,30.04,South,188,1.0,1.0,87,0.00,,,0.03,Wunderground v.1.15,2013-05-17 16:11:00,
2013-05-17 09:21:00,55.7,50.3,30.04,NW,308,1.0,1.0,82,0.00,,,0.03,Wunderground v.1.15,2013-05-17 16:21:00,
2013-05-17 09:26:00,55.9,50.8,30.04,SE,124,1.0,1.0,83,0.00,,,0.03,Wunderground v.1.15,2013-05-17 16:26:00,
2013-05-17 09:36:00,56.3,50.9,30.04,South,172,1.0,2.0,82,0.00,,,0.03,Wunderground v.1.15,2013-05-17 16:36:00,
2013-05-17 09:46:00,56.0,49.6,30.04,SSE,158,1.0,4.0,79,0.00,,,0.03,Wunderground v.1.15,2013-05-17 16:46:00,
2013-05-17 09:51:00,56.0,50.6,30.04,SSE,158,1.0,1.0,82,0.00,,,0.03,Wunderground v.1.15,2013-05-17 16:51:00,
2013-05-17 10:01:00,56.0,50.6,30.04,SSW,212,1.0,1.0,82,0.00,,,0.03,Wunderground v.1.15,2013-05-17 17:01:00,
2013-05-17 10:11:00,56.3,51.5,30.04,North,6,1.0,1.0,84,0.00,,,0.03,Wunderground v.1.15,2013-05-17 17:11:00,
2013-05-17 10:21:00,56.9,51.1,30.05,WNW,287,1.0,1.0,81,0.00,,,0.03,Wunderground v.1.15,2013-05-17 17:21:00,
2013-05-17 10:31:00,57.2,51.4,30.05,SSW,212,0.0,0.0,81,0.00,,,0.03,Wunderground v.1.15,2013-05-17 17:31:00,
2013-05-17 10:36:00,57.2,51.4,30.05,SSE,167,1.0,1.0,81,0.00,,,0.03,Wunderground v.1.15,2013-05-17 17:36:00,
2013-05-17 10:41:00,57.0,50.5,30.05,West,272,1.0,1.0,79,0.00,,,0.03,Wunderground v.1.15,2013-05-17 17:41:00,
2013-05-17 10:51:00,57.3,50.8,30.05,SSE,155,2.0,2.0,79,0.00,,,0.03,Wunderground v.1.15,2013-05-17 17:51:00,
2013-05-17 11:01:00,57.6,49.0,30.05,SE,136,2.0,2.0,73,0.00,,,0.03,Wunderground v.1.15,2013-05-17 18:01:00,
2013-05-17 11:11:00,57.6,49.7,30.05,SE,126,1.0,1.0,75,0.00,,,0.03,Wunderground v.1.15,2013-05-17 18:11:00,
2013-05-17 11:16:00,57.6,50.1,30.05,SE,133,1.0,1.0,76,0.00,,,0.03,Wunderground v.1.15,2013-05-17 18:16:00,
2013-05-17 11:21:00,57.6,50.4,30.05,SW,222,1.0,1.0,77,0.00,,,0.03,Wunderground v.1.15,2013-05-17 18:21:00,
2013-05-17 11:31:00,57.5,50.3,30.05,SE,128,1.0,1.0,77,0.00,,,0.03,Wunderground v.1.15,2013-05-17 18:31:00,
2013-05-17 11:41:00,57.3,51.5,30.05,SSE,150,1.0,1.0,81,0.00,,,0.03,Wunderground v.1.15,2013-05-17 18:41:00,
2013-05-17 11:46:00,57.2,51.4,30.06,SSE,160,1.0,2.0,81,0.00,,,0.03,Wunderground v.1.15,2013-05-17 18:46:00,
2013-05-17 11:56:00,57.2,51.4,30.06,NE,44,0.0,1.0,81,0.00,,,0.03,Wunderground v.1.15,2013-05-17 18:56:00,
2013-05-17 12:06:00,57.3,52.5,30.06,NNE,32,0.0,0.0,84,0.00,,,0.03,Wunderground v.1.15,2013-05-17 19:06:00,
2013-05-17 12:16:00,57.8,52.7,30.06,South,182,0.0,1.0,83,0.00,,,0.03,Wunderground v.1.15,2013-05-17 19:16:00,
2013-05-17 12:26:00,58.4,52.9,30.06,SE,140,1.0,1.0,82,0.00,,,0.04,Wunderground v.1.15,2013-05-17 19:26:00,
2013-05-17 12:31:00,58.4,52.3,30.05,SE,143,1.0,4.0,80,0.00,,,0.04,Wunderground v.1.15,2013-05-17 19:31:00,
2013-05-17 12:36:00,58.4,53.9,30.05,SE,138,1.0,4.0,85,0.00,,,0.04,Wunderground v.1.15,2013-05-17 19:36:00,
2013-05-17 12:46:00,58.6,53.1,30.05,SSE,168,1.0,4.0,82,0.00,,,0.04,Wunderground v.1.15,2013-05-17 19:46:00,
2013-05-17 12:56:00,58.9,52.7,30.05,SE,138,2.0,2.0,80,0.00,,,0.04,Wunderground v.1.15,2013-05-17 19:56:00,
2013-05-17 13:11:00,59.0,51.8,30.06,SE,143,1.0,1.0,77,0.00,,,0.04,Wunderground v.1.15,2013-05-17 20:11:00,
2013-05-17 13:21:00,59.0,52.1,30.05,ESE,119,0.0,0.0,78,0.00,,,0.04,Wunderground v.1.15,2013-05-17 20:21:00,
2013-05-17 13:26:00,58.9,52.1,30.05,SE,124,0.0,2.0,78,0.00,,,0.04,Wunderground v.1.15,2013-05-17 20:26:00,
2013-05-17 13:36:00,58.7,52.9,30.05,NE,37,1.0,1.0,81,0.00,,,0.04,Wunderground v.1.15,2013-05-17 20:36:00,
2013-05-17 13:46:00,58.7,52.5,30.05,SSE,150,0.0,0.0,80,0.00,,,0.04,Wunderground v.1.15,2013-05-17 20:46:00,
2013-05-17 13:56:00,58.9,53.7,30.05,WNW,292,0.0,1.0,83,0.00,,,0.04,Wunderground v.1.15,2013-05-17 20:56:00,
2013-05-17 14:11:00,59.3,54.1,30.05,NW,325,0.0,0.0,83,0.00,,,0.04,Wunderground v.1.15,2013-05-17 21:11:00,
2013-05-17 14:21:00,59.9,54.1,30.05,NW,326,0.0,1.0,81,0.00,,,0.04,Wunderground v.1.15,2013-05-17 21:21:00,
2013-05-17 14:31:00,60.4,53.9,30.05,WNW,291,0.0,0.0,79,0.00,,,0.04,Wunderground v.1.15,2013-05-17 21:31:00,
2013-05-17 14:41:00,60.5,52.9,30.05,North,359,0.0,0.0,76,0.00,,,0.04,Wunderground v.1.15,2013-05-17 21:41:00,
2013-05-17 14:51:00,60.7,52.7,30.05,NW,319,1.0,1.0,75,0.00,,,0.04,Wunderground v.1.15,2013-05-17 21:51:00,
2013-05-17 15:01:00,60.7,52.7,30.05,SE,138,1.0,1.0,75,0.00,,,0.04,Wunderground v.1.15,2013-05-17 22:01:00,
2013-05-17 15:11:00,60.5,52.5,30.05,NE,42,2.0,2.0,75,0.00,,,0.04,Wunderground v.1.15,2013-05-17 22:11:00,
2013-05-17 15:21:00,60.4,53.2,30.05,North,352,1.0,1.0,77,0.00,,,0.04,Wunderground v.1.15,2013-05-17 22:21:00,
2013-05-17 15:31:00,60.4,53.9,30.05,NW,305,0.0,1.0,79,0.00,,,0.04,Wunderground v.1.15,2013-05-17 22:31:00,
2013-05-17 15:36:00,60.4,53.5,30.05,NW,306,0.0,1.0,78,0.00,,,0.04,Wunderground v.1.15,2013-05-17 22:36:00,
2013-05-17 15:46:00,60.4,53.2,30.05,NW,311,0.0,0.0,77,0.00,,,0.04,Wunderground v.1.15,2013-05-17 22:46:00,
2013-05-17 15:51:00,60.2,53.0,30.05,NW,311,0.0,1.0,77,0.00,,,0.04,Wunderground v.1.15,2013-05-17 22:51:00,
2013-05-17 15:56:00,60.2,52.6,30.05,NW,312,0.0,1.0,76,0.00,,,0.04,Wunderground v.1.15,2013-05-17 22:56:00,
2013-05-17 16:11:00,60.5,52.9,30.04,NNW,329,0.0,1.0,76,0.00,,,0.04,Wunderground v.1.15,2013-05-17 23:11:00,
2013-05-17 16:21:00,60.5,52.9,30.04,WSW,258,1.0,1.0,76,0.00,,,0.04,Wunderground v.1.15,2013-05-17 23:21:00,
2013-05-17 16:31:00,60.7,52.0,30.04,West,274,0.0,0.0,73,0.00,,,0.04,Wunderground v.1.15,2013-05-17 23:31:00,
2013-05-17 16:36:00,60.5,51.4,30.04,WNW,291,0.0,0.0,72,0.00,,,0.04,Wunderground v.1.15,2013-05-17 23:36:00,
2013-05-17 16:46:00,60.7,52.7,30.04,SSW,202,0.0,0.0,75,0.00,,,0.04,Wunderground v.1.15,2013-05-17 23:46:00,
2013-05-17 16:51:00,60.7,52.4,30.04,ENE,64,0.0,0.0,74,0.00,,,0.04,Wunderground v.1.15,2013-05-17 23:51:00,
2013-05-17 17:01:00,60.7,51.2,30.04,SE,145,1.0,1.0,71,0.00,,,0.04,Wunderground v.1.15,2013-05-18 00:01:00,
2013-05-17 17:11:00,61.0,52.3,30.04,SSE,157,1.0,2.0,73,0.00,,,0.04,Wunderground v.1.15,2013-05-18 00:11:00,
2013-05-17 17:16:00,61.0,48.7,30.04,South,169,2.0,2.0,64,0.00,,,0.04,Wunderground v.1.15,2013-05-18 00:16:00,
2013-05-17 17:26:00,62.0,50.5,30.04,SSE,152,2.0,2.0,66,0.00,,,0.04,Wunderground v.1.15,2013-05-18 00:26:00,
2013-05-17 17:36:00,63.2,52.5,30.04,WSW,257,1.0,1.0,68,0.00,,,0.04,Wunderground v.1.15,2013-05-18 00:36:00,
2013-05-17 17:41:00,63.9,50.6,30.04,SE,126,2.0,4.0,62,0.00,,,0.04,Wunderground v.1.15,2013-05-18 00:41:00,
2013-05-17 17:51:00,63.5,50.2,30.04,East,95,2.0,2.0,62,0.00,,,0.04,Wunderground v.1.15,2013-05-18 00:51:00,
2013-05-17 18:01:00,62.6,49.8,30.04,SE,145,1.0,1.0,63,0.00,,,0.04,Wunderground v.1.15,2013-05-18 01:01:00,
2013-05-17 18:11:00,62.3,50.0,30.04,SSE,168,1.0,1.0,64,0.00,,,0.04,Wunderground v.1.15,2013-05-18 01:11:00,
2013-05-17 18:21:00,62.1,50.2,30.04,SSE,164,1.0,1.0,65,0.00,,,0.04,Wunderground v.1.15,2013-05-18 01:21:00,
2013-05-17 18:31:00,61.8,50.3,30.04,South,179,1.0,1.0,66,0.00,,,0.04,Wunderground v.1.15,2013-05-18 01:31:00,
2013-05-17 18:36:00,61.6,50.5,30.04,SSE,157,1.0,1.0,67,0.00,,,0.04,Wunderground v.1.15,2013-05-18 01:36:00,
2013-05-17 18:46:00,61.6,48.9,30.05,SSE,150,2.0,2.0,63,0.00,,,0.04,Wunderground v.1.15,2013-05-18 01:46:00,
2013-05-17 18:56:00,61.0,49.6,30.05,NE,55,2.0,2.0,66,0.00,,,0.04,Wunderground v.1.15,2013-05-18 01:56:00,
2013-05-17 19:01:00,60.7,48.9,30.05,SE,126,1.0,1.0,65,0.00,,,0.04,Wunderground v.1.15,2013-05-18 02:01:00,
2013-05-17 19:11:00,60.5,49.9,30.05,SE,126,0.0,0.0,68,0.00,,,0.04,Wunderground v.1.15,2013-05-18 02:11:00,
2013-05-17 19:16:00,60.5,49.9,30.05,NNW,332,0.0,0.0,68,0.00,,,0.04,Wunderground v.1.15,2013-05-18 02:16:00,
2013-05-17 19:26:00,60.4,49.4,30.05,WSW,251,1.0,1.0,67,0.00,,,0.04,Wunderground v.1.15,2013-05-18 02:26:00,
2013-05-17 19:36:00,60.1,50.3,30.05,SSE,147,0.0,2.0,70,0.00,,,0.04,Wunderground v.1.15,2013-05-18 02:36:00,
2013-05-17 19:46:00,59.6,49.4,30.05,SSE,151,2.0,4.0,69,0.00,,,0.04,Wunderground v.1.15,2013-05-18 02:46:00,
2013-05-17 19:56:00,59.2,49.0,30.05,ESE,120,1.0,2.0,69,0.00,,,0.04,Wunderground v.1.15,2013-05-18 02:56:00,
2013-05-17 20:06:00,58.9,49.5,30.06,West,272,0.0,1.0,71,0.00,,,0.04,Wunderground v.1.15,2013-05-18 03:06:00,
2013-05-17 20:16:00,58.7,50.4,30.06,North,0,0.0,0.0,74,0.00,,,0.04,Wunderground v.1.15,2013-05-18 03:16:00,
2013-05-17 20:26:00,58.3,49.7,30.06,ESE,120,2.0,2.0,73,0.00,,,0.04,Wunderground v.1.15,2013-05-18 03:26:00,
2013-05-17 20:31:00,58.1,49.9,30.07,SSE,167,2.0,2.0,74,0.00,,,0.04,Wunderground v.1.15,2013-05-18 03:31:00,
2013-05-17 20:36:00,57.8,49.6,30.07,SE,144,2.0,2.0,74,0.00,,,0.04,Wunderground v.1.15,2013-05-18 03:36:00,
2013-05-17 20:46:00,57.6,49.7,30.07,SE,143,1.0,2.0,75,0.00,,,0.04,Wunderground v.1.15,2013-05-18 03:46:00,
2013-05-17 20:51:00,57.6,49.7,30.07,SE,137,1.0,1.0,75,0.00,,,0.04,Wunderground v.1.15,2013-05-18 03:51:00,
2013-05-17 20:56:00,57.5,50.0,30.07,SE,140,1.0,1.0,76,0.00,,,0.04,Wunderground v.1.15,2013-05-18 03:56:00,
2013-05-17 21:01:00,57.5,50.0,30.07,SE,143,0.0,0.0,76,0.00,,,0.04,Wunderground v.1.15,2013-05-18 04:01:00,
2013-05-17 21:11:00,57.3,50.1,30.07,SE,134,1.0,1.0,77,0.00,,,0.04,Wunderground v.1.15,2013-05-18 04:11:00,
2013-05-17 21:21:00,57.0,50.2,30.08,SE,130,1.0,1.0,78,0.00,,,0.04,Wunderground v.1.15,2013-05-18 04:21:00,
2013-05-17 21:26:00,57.0,50.2,30.08,NE,55,1.0,1.0,78,0.00,,,0.04,Wunderground v.1.15,2013-05-18 04:26:00,
2013-05-17 21:36:00,56.7,50.3,30.08,North,0,0.0,0.0,79,0.00,,,0.04,Wunderground v.1.15,2013-05-18 04:36:00,
2013-05-17 21:46:00,56.5,50.4,30.08,East,83,1.0,1.0,80,0.00,,,0.04,Wunderground v.1.15,2013-05-18 04:46:00,
2013-05-17 21:56:00,56.3,50.9,30.08,NNW,340,0.0,0.0,82,0.00,,,0.04,Wunderground v.1.15,2013-05-18 04:56:00,
2013-05-17 22:01:00,56.2,50.8,30.09,NNW,340,0.0,0.0,82,0.00,,,0.04,Wunderground v.1.15,2013-05-18 05:01:00,
2013-05-17 22:06:00,56.2,50.8,30.09,NNW,343,0.0,0.0,82,0.00,,,0.04,Wunderground v.1.15,2013-05-18 05:06:00,
2013-05-17 22:16:00,55.9,50.8,30.09,NW,325,0.0,0.0,83,0.00,,,0.04,Wunderground v.1.15,2013-05-18 05:16:00,
2013-05-17 22:26:00,55.6,50.8,30.09,SE,133,0.0,2.0,84,0.00,,,0.04,Wunderground v.1.15,2013-05-18 05:26:00,
2013-05-17 22:31:00,55.4,50.3,30.09,ESE,121,0.0,0.0,83,0.00,,,0.04,Wunderground v.1.15,2013-05-18 05:31:00,
2013-05-17 22:36:00,55.3,50.5,30.09,SE,136,1.0,1.0,84,0.00,,,0.04,Wunderground v.1.15,2013-05-18 05:36:00,
2013-05-17 22:46:00,54.8,49.7,30.09,East,100,0.0,2.0,83,0.00,,,0.04,Wunderground v.1.15,2013-05-18 05:46:00,
2013-05-17 22:56:00,54.5,49.8,30.10,SE,145,1.0,4.0,84,0.00,,,0.04,Wunderground v.1.15,2013-05-18 05:56:00,
2013-05-17 23:11:00,54.2,48.8,30.10,SE,124,2.0,2.0,82,0.00,,,0.04,Wunderground v.1.15,2013-05-18 06:11:00,
2013-05-17 23:21:00,54.1,48.1,30.10,SSE,158,2.0,2.0,80,0.00,,,0.04,Wunderground v.1.15,2013-05-18 06:21:00,
2013-05-17 23:31:00,53.8,47.8,30.11,SE,130,1.0,7.0,80,0.00,,,0.04,Wunderground v.1.15,2013-05-18 06:31:00,
2013-05-17 23:41:00,53.6,47.6,30.11,SSE,147,2.0,2.0,80,0.00,,,0.04,Wunderground v.1.15,2013-05-18 06:41:00,
2013-05-17 23:51:00,53.5,47.5,30.11,NNW,332,1.0,1.0,80,0.00,,,0.04,Wunderground v.1.15,2013-05-18 06:51:00,
2013-05-17 23:56:00,53.5,47.5,30.11,SSE,158,1.0,2.0,80,0.00,,,0.04,Wunderground v.1.15,2013-05-18 06:56:00,